Find Starlink 31546

NORAD ID: 59470 Int'l Des: 2024-068 Owner: SPXS Country: US Constellation: starlink operational
LEOCIRCULAR

現在のビュー

3D地球を読み込み中...

About Starlink 31546

Starlink 31546 (NORAD 59470) is a starlink constellation satellite (v2 mini) launched Apr 10, 2024 by SPXS of US. It operates in LEO, CIRCULAR orbit with a mass of 730.00 kg.

Starlink 31546について

説明を読み込み中...

次回通過

Passes for default location (London). Set your location on the main map for personalized predictions.

高度履歴

Loading altitude history...

軌道要素

1 59470U 24068R 26169.11758581 .00004181 00000-0 16134-3 0 9997
2 59470 42.9942 183.7346 0001657 275.8261 84.2402 15.27588181123922
Epoch: Jun 18, 2026 • Age: 26 hours

現在のステータス

高度 482.7 km
速度 7.63 km/s
衛星直下点 14.41°N, 5.01°E
打ち上げ日 Apr 10, 2024
運用期間 2.1 years
タイプ internet

技術仕様

分類 Payload
質量 730.00 kg
乾燥質量 700.00 kg
総質量 730.00 kg
長さ 0.30 m
直径 4.10 m
スパン 29.00 m
形状 Box + pan
製造者 SPXS
バスタイプ Starlink V2M
フェーズステータス In Orbit
所有者/国 SPXS/US

Most Searched